Simultaneous Nadir Overpasses (SNOs) Predictions

Prediction of SNOs between GOES-17 and NOAA-19 Satellite Orbit:

Table of predicted SNOs for the next 14.0 days since TLE Epoch: 1/29/2022
Index Date Time (GOES-17) GOES-17 Lat,Lon NOAA-19 Lat,Lon Distance(km) Time Diff (sec)
1 01/29/2022 16:39:35 -0.03,-137.22 0.06,-137.67 50.63 80
2 01/30/2022 16:25:08 -0.02,-137.22 -0.61,-134.79 277.63 80
3 02/02/2022 04:48:31 -0.00,-137.20 -0.58,-139.69 284.29 80
4 02/03/2022 04:34:04 -0.01,-137.20 0.08,-136.81 43.90 80
5 02/04/2022 04:22:16 -0.01,-137.19 0.74,-133.93 371.91 80
6 02/06/2022 16:45:37 0.01,-137.18 0.38,-138.83 187.74 80
7 02/07/2022 16:31:10 0.01,-137.18 -0.30,-135.96 140.01 80
8 02/08/2022 16:19:21 0.01,-137.17 -0.93,-133.07 467.52 80
9 02/10/2022 04:51:56 -0.02,-137.14 -0.87,-140.87 425.08 80
10 02/11/2022 04:40:08 -0.01,-137.13 -0.20,-137.99 98.16 80
